Location: Dresden
(51.0500°N, 13.7500°E)
Time: 00:48:02
(UTC+00:00)

ISS - Visible Passes

Search period start: 23 March 2019 00:00
Search period end: 02 April 2019 00:00
Orbit: 406 x 411 km, 51.6° (Epoch: 23 March)

Date Brightness Start Highest point End Pass type
(mag) Time Alt. Az. Time Alt. Az. Time Alt. Az.
23 Mar -3.0 19:22:46 10° SW 19:25:12 39° SSW 19:25:12 39° SSW visible
24 Mar -3.1 18:31:58 10° SW 18:35:00 34° SSE 18:36:39 21° E visible
24 Mar -1.6 20:08:05 10° W 20:09:25 22° W 20:09:25 22° W visible
25 Mar -3.9 19:17:00 10° WSW 19:20:18 77° SSE 19:20:42 64° ESE visible
26 Mar -3.7 18:25:59 10° WSW 18:29:15 59° SSE 18:31:52 15° E visible
26 Mar -2.4 20:02:29 10° W 20:04:37 36° W 20:04:37 36° W visible
27 Mar -3.9 19:11:21 10° W 19:14:40 83° N 19:15:40 42° ENE visible
27 Mar -0.7 20:47:59 10° W 20:48:25 13° W 20:48:25 13° W visible
28 Mar -3.8 18:20:14 10° WSW 18:23:32 85° S 18:26:40 11° E visible
28 Mar -3.0 19:56:50 10° W 19:59:24 50° WNW 19:59:24 50° WNW visible
29 Mar -3.8 19:05:42 10° W 19:09:01 78° N 19:10:20 33° E visible
29 Mar -1.0 20:42:18 10° W 20:43:04 16° W 20:43:04 16° W visible
30 Mar -3.7 18:14:32 10° W 18:17:50 80° N 18:21:08 10° E visible
30 Mar -3.4 19:51:08 10° W 19:53:57 60° W 19:53:57 60° W visible
31 Mar -3.9 18:59:58 10° W 19:03:18 89° NNE 19:04:50 29° E visible
31 Mar -1.1 20:36:39 10° W 20:37:33 16° W 20:37:33 16° W visible
01 Apr -3.7 18:08:48 10° W 18:12:07 80° N 18:15:25 10° E visible
01 Apr -3.3 19:45:24 10° W 19:48:25 47° SW 19:48:25 47° SW visible
